Regional Weather Roundup
Issued by NWS Wakefield, VA

Home | Current Version | Previous Version | Text Only | Print | Product List | Glossary On
Versions: 1 2 3 4 5 6 7 8 9 10 11 12 13 14 15 16 17 18 19 20 21 22 23 24 25 26 27 28 29 30 31 32 33 34 35 36 37 38 39 40 41 42 43 44 45 46 47 48 49 50
000
ASUS41 KAKQ 281910
RWRAKQ

REGIONAL WEATHER ROUNDUP
NATIONAL WEATHER SERVICE WAKEFIELD VA
300 PM EDT MON JUL 28 2014

Note: "fair" indicates few or no clouds below 12,000 feet with no
significant weather and/or obstructions to visibility. * = Denotes
station may not report precipitation (e.g., rain,snow,etc.),
thunder or fog.

VAZ042-051-052>054-056-282000-
NORTHERN VIRGINIA

CITY           SKY/WX    TMP DP  RH WIND       PRES   REMARKS
WASH NATIONAL  PTSUNNY   84  55  37 W22G30    29.69R
DULLES         PTSUNNY   78  54  43 W18G29    29.70S
FORT BELVOIR   MOSUNNY   84  60  44 W13G22    29.70R
QUANTICO       NOT AVBL
FREDERICKSBRG* MOSUNNY   85  56  36 NW14G21   29.69S
STAFFORD*      PTSUNNY   82  55  38 W13G22    29.74S
WARRENTON      MOSUNNY   83  66  55 W7        29.71S
CULPEPER*      SUNNY    N/A N/A N/A W12G17    29.72S
MANASSAS*      PTSUNNY   81  57  44 NW14G22   29.70
LEESBURG*      CLOUDY    77  61  57 W16G28    29.71S
WINCHESTER     MOSUNNY   77  55  47 W22G30    29.72S
$$

VAZ048-049-060>072-079>083-282000-
CENTRAL AND SOUTH CENTRAL VIRGINIA...AND NORTH CENTRAL NORTH CAROLINA

CITY           SKY/WX    TMP DP  RH WIND       PRES   REMARKS
RICHMOND       MOSUNNY   86  55  34 W15G25    29.72S
CHESTERFIELD*  PTCLDY    84  57  39 W14G22    29.75S
HANOVER        PTSUNNY   85  56  37 W15G21    29.74R
TAPPAHANNOCK*  MOSUNNY   85  53  33 W13G22    29.71S
CHARLOTTSVILLE CLOUDY    77  57  50 NW3       29.76R
ORANGE*        PTSUNNY   79  55  44 W12       29.75S
LOUISA*        MOSUNNY   82  57  42 W14G20    29.73S
FARMVILLE*     CLOUDY    82  54  36 W7        29.76S
SOUTH HILL*    MOSUNNY   84  63  48 W6        29.84R
ROANOKE RAPIDS NOT AVBL
RALEIGH        MOSUNNY   85  61  44 W6        29.80F
$$

VAZ088>098-282000-
SOUTHEAST VIRGINIA

CITY           SKY/WX    TMP DP  RH WIND       PRES   REMARKS
NORFOLK        MOSUNNY   87  62  43 W10G20    29.71S
VIRGINIA BEACH PTSUNNY   86  64  47 W16       29.70S
NORFOLK NAVAL  MOSUNNY   88  63  43 W15G23    29.72S
WEST POINT*    PTSUNNY   87  58  36 W13G20    29.71S
NEWPORT NEWS   MOSUNNY   89  62  40 W12       29.71S
LANGLEY AFB    PTSUNNY   84  65  52 W14       29.70S
FORT EUSTIS    PTSUNNY   84  64  50 W10G20    29.70R
WILLIAMSBURG*  MOSUNNY   90  63  40 W16G24    29.72S
FRANKLIN*      MOSUNNY   86  63  45 W12       29.74S
WAKEFIELD      MOSUNNY   86  61  42 W12       29.73S
$$

VAZ020-022-025-037-045-282000-
WESTERN AND SOUTHWEST VIRGINIA

CITY           SKY/WX    TMP DP  RH WIND       PRES   REMARKS
STAUNTON*      PTSUNNY   76  53  44 W14G22    29.81S
HOT SPRINGS VA CLOUDY    59  50  72 W17G26    29.93R
LYNCHBURG      CLOUDY    76  57  51 VRB7      29.83S
DANVILLE       CLOUDY    83  57  41 W13       29.82S
MARTINSVILLE   CLOUDY    83  56  39 NW10      29.86S
ROANOKE        PTSUNNY   77  55  46 W18G24    29.85S
BLACKSBURG     CLOUDY    73  59  60 NW14G24     N/A
DUBLIN*        PTSUNNY   76  58  52 W14G23    29.91S
MARION*        CLOUDY   N/A N/A N/A W15G24    29.97R
HILLSVILLE*    CLOUDY    71  54  55 NW12G25   29.93F
RICHLANDS*     CLOUDY    70  58  66 NW8       29.98S
WISE*          CLOUDY    70  54  56 W12G17    30.00F
ABINGDON*      CLOUDY    73  58  59 NW6G17    29.96S
$$

MDZ021>025-VAZ099-100-282000-
SOUTHERN MARYLAND AND THE DELMARVA PENINSULA

CITY           SKY/WX    TMP DP  RH WIND       PRES   REMARKS
PATUXENT RIVER MOSUNNY   86  58  38 W13G25    29.67S
BAY BRIDGE APT   N/A     82  54  36 W12G18    29.65S
LEONARDTOWN    MOSUNNY   82  55  39 W14G20    29.70S
DOVER          MOSUNNY   84  61  46 W18G28    29.62S
GEORGETOWN     MOSUNNY   84  58  40 W12G24    29.65S
EASTON         MOSUNNY   86  61  42 W13G24    29.69S
CAMBRIDGE      SUNNY     84  57  39 SW12      29.66S
SALISBURY      PTSUNNY   86  57  37 W17G24    29.66
OCEAN CITY     MOSUNNY   86  61  42 W14       29.65R
WALLOPS ISLAND MOSUNNY   87  64  46 W10       29.67S
ACCOMACK*        N/A     82  63  51 NW10G18   29.69R
$$

NCZ012>017-030>032-282000-
EASTERN NORTH CAROLINA

CITY           SKY/WX    TMP DP  RH WIND       PRES   REMARKS
ELIZABETH CITY MOSUNNY   87  65  47 W16G25    29.74S
AHOSKIE*       MOSUNNY   84  62  47 NW5       29.76S
EDENTON*       MOSUNNY   87  67  51 W14       29.76S
CURRITUCK*     MOSUNNY   90  60  37 W13G24    29.74R
KILL DEVIL HLS SUNNY     87  66  50 W14G22    29.73S
MANTEO         NOT AVBL
CAPE HATTERAS  MOSUNNY   86  77  74 SW13      29.77F HX  97
GOLDSBORO      SUNNY     90  69  49 W13G23    29.76S HX  95
WASHINGTON     MOSUNNY   87  67  50 W9G18     29.77S
GREENVILLE     MOSUNNY   90  66  45 W12G18    29.80S
NEW BERN       MOSUNNY   89  70  53 SW8       29.79S
WILMINGTON     PTSUNNY   91  74  57 SW12      29.78F HX 100
$$

VAZ048-282000-
ELSEWHERE

CITY           SKY/WX    TMP DP  RH WIND       PRES   REMARKS
HARRISBURG PA  PTSUNNY   78  59  51 W12G22    29.62S
BALTIMORE      MOSUNNY   86  54  33 W20G37    29.64S
ANNAPOLIS      MOSUNNY   84  56  38 W15G28    29.65S
ANDREWS AFB    MOSUNNY   83  58  42 NW22G30   29.68R
WILMINGTON DE  PTSUNNY   82  60  47 W16G24    29.62S
PHILADELPHIA   PTSUNNY   83  59  44 W26       29.60S
WILDWOOD NJ*   MOSUNNY   81  63  54 W13G22    29.64S
ATLANTIC CITY  MOSUNNY   82  61  48 W17G23    29.60R
HENDERSON NC   MOSUNNY   84  54  35 NW8       29.80S
GREENSBORO     MOSUNNY   84  56  38 NW15      29.83S
ROCKY MOUNT    PTSUNNY   88  64  44 W7        29.78F
FAYETTEVILLE   MOSUNNY   96  62  32 W16G24    29.77F HX  97
CHARLOTTE      MOSUNNY   89  59  36 NW7G16    29.84S
$$

VAZ100-282000-
MARINE

STATION/POSITION TIME  TEMP    WIND        PRES    WAVE   SWELL
                       AIR SEA DIR/SP/G            HT/PER HT/PER
                 (UTC) (F)     (DEG/KT/KT) (MB)    (FT/S) (FT/S)
44066 TX TWR #4  1900   76 75  230/ 14/ 17 1001.8R   5/ 7   3/ 7
CAPE MAY NJ      1900   79 79  300/ 15/ 18 1003.0R
LEWES DE         1900   83 72  280/ 14/ 20 1003.2R
15NM E FENWICK I 1900   78 74              1003.9R   3/ 6
OCEAN-CITY-INLET 1900   83 71  280/ 11/ 19 1003.6S
WACHAPREAGUE VA  1900   87 82  260/  7/ 13 1005.1R
THOMAS POINT MD  1900   81 79  270/ 19/ 21 1004.6R
GOOSES REEF MD   1900   81     300/ 16/ 21 1004.8F
COVE POINT MD    1900   81     310/ 15/ 20 1004.6S
SOLOMONS ISLAND  1900      81                N/A
BISHOPS HEAD MD  1900   81 81  300/ 15/ 17 1004.7R
PINEY POINT MD   1900          320/ 16/ 18   N/A
POTOMAC MD       1900   81     320/ 17/ 19 1004.2F
CAMBRIDGE MD     1900   83 80  260/ 13/ 17 1004.2R
LEWISETTA VA     1900   83 81  280/ 11/ 14 1004.9F
RAPPAHANNOCK LGT 1900          270/ 14/ 16 1005.8S
STINGRAY PT      1900   84     270/ 16/ 19 1006.1S
YORK RVR RNG VA  1900   83     280/ 17/ 19 1005.0S
YORKTOWN VA      1900   85 80  250/ 12/ 18 1005.3F
JAMESTOWN VA     1900   83     300/ 14/ 17   N/A
DOMINION TERM VA 1900   84     290/ 15/ 18 1006.1R
KIPTOPEKE VA     1900      82  300/ 12/ 14   N/A
CHES BAY BRIDGE  1900   83 78  250/ 15/ 16 1005.3S
CAPE HENRY VA    1900   85     260/ 13/ 18 1004.7S
WILLOUBY STN VA  1900          280/ 16/ 18 1005.3R
S CRANEY ISL VA  1900          260/  9/ 14 1006.1S
CAPE HENRY BUOY  1900      78                N/A     3/ 6
1ST LANDING BUOY 1900   83     270/ 14/ 17 1005.8R
CAPE CHARLES BUO 1900      74                N/A     3/ 6
OFFSHORE WE BUOY 1900      79                N/A     3/ 6
64NM E OF VA BCH 1900   81 78  240/ 16/ 19 1005.6R   5/ 7
DUCK PIER NC     1900   85 60  250/ 17/ 21 1006.2S
44056 DUCK FRF   1900                        N/A     2/ 9
OREGON INLET NC  1900   86 82  230/ 12/ 16 1007.0S
HATTERAS NC      1900   84 81  220/ 10/ 14 1008.7F
DIAMOND SHLS NC  1900          VRB 16/ 17  1008.1F   5/ 7   2/ 9
CAPE LOOKOUT NC  1800   82     220/ 10/ 13 1009.1F
$$


USA.gov is the U.S. government's official web portal to all federal, state and local government web resources and services.